Regional Weather Roundup
Issued by NWS

Home | Current Version | Previous Version | Graphics & Text | Print | Product List | Glossary On
Versions: 1 2 3 4 5 6 7 8 9 10 11 12 13 14 15 16 17 18 19 20 21 22 23 24 25 26 27 28 29 30 31 32 33 34 35 36 37 38 39 40 41 42 43 44 45 46 47 48 49 50
000
ASUS45 KBOU 041810
RWRCO

WEATHER ROUNDUP FOR COLORADO
NATIONAL WEATHER SERVICE DENVER/BOULDER CO
1200 PM MDT SAT JUL 04 2015

NOTE: "FAIR" INDICATES FEW OR NO CLOUDS BELOW 12000 FEET WITH NO
SIGNIFICANT WEATHER AND/OR OBSTRUCTIONS TO VISIBILITY.

COZ001>005-013-030-031-041900-
...NORTHWEST COLORADO...

CITY           SKY/WX    TMP DP  RH WIND       PRES   REMARKS
CRAIG          MOSUNNY   86  48  26 SW8       30.12F
HAYDEN         SUNNY     81  46  30 NW5       30.16F
MEEKER         MOSUNNY   84  50  30 VRB7      30.16F
MOUNT WERNER   NOT AVBL
STEAMBOAT SPGS SUNNY     78  48  34 S8        30.19S
WALDEN         MOSUNNY   77  37  24 W10       30.25F
$$

COZ006>008-011-041900-
...WEST CENTRAL VALLEYS...

CITY           SKY/WX    TMP DP  RH WIND       PRES   REMARKS
GRAND JUNCTION SUNNY     87  50  27 S12G17    30.05F
MONTROSE       PTSUNNY   81  53  37 S7        30.15F
EAGLE          MOSUNNY   82  46  28 SW17G23   30.18F
RIFLE          SUNNY     82  51  34 VRB5      30.11F
DELTA          PTSUNNY   89  50  26 SE7       30.11F
NUCLA          PTSUNNY   79  54  41 NW8       30.18S
$$

COZ017>023-064>068-041900-
...SOUTHWEST COLORADO...

CITY           SKY/WX    TMP DP  RH WIND       PRES   REMARKS
DURANGO        MOSUNNY   79  49  34 N8        30.22F
CORTEZ         SUNNY     83  52  34 SW6       30.16S
PAGOSA SPRINGS MOSUNNY   76  43  31 W3        30.30F
TELLURIDE      MOSUNNY   72  46  39 CALM      30.40F
WOLF CREEK PAS NOT AVBL
$$

COZ009-010-012-014-032>034-037-058>063-041900-
...CENTRAL COLORADO...

CITY           SKY/WX    TMP DP  RH WIND       PRES   REMARKS
ASPEN          MOSUNNY   77  46  33 VRB6      30.27F
BUENA VISTA    MOSUNNY   75  43  32 CALM      30.26F
COPPER MTN     MOSUNNY   61  36  39 W15G28    30.61S
BERTHOUD PASS  FAIR      54  45  71 NW16G30   30.64S
COTTONWOOD PAS NOT AVBL
GUNNISON       MOSUNNY   72  48  43 SW6       30.32F
KREMMLING      SUNNY     81  37  21 NW5       30.22F
LEADVILLE      MOSUNNY   70  37  29 NW13G18   30.41F
MONARCH PASS   SUNNY     55  45  67 W13G18    30.72R
SALIDA         MOSUNNY   83  44  25 SW12      30.29F
SUNLIGHT       MOSUNNY   64  48  55 CALM      30.55S
WILKERSON PASS MOSUNNY   63  46  55 W5        30.56F
$$

COZ069>075-041900-
...SAN LUIS VALLEY/SANGRE DE CRISTO MOUNTAINS...

CITY           SKY/WX    TMP DP  RH WIND       PRES   REMARKS
ALAMOSA        SUNNY     73  50  44 NE7       30.27F
LA VETA PASS   SUNNY     63  50  63 MISG      30.46S
SAGUACHE       SUNNY     72  50  46 S10       30.31F
$$

COZ035-036-038>040-041900-
...NORTHERN COLORADO FRONT RANGE...

CITY           SKY/WX    TMP DP  RH WIND       PRES   REMARKS
DENVER INTL AP MOSUNNY   88  51  28 VRB3      30.01F
DMNS CITY PARK   N/A     91  47  21 N5        30.00S
AURORA         MOSUNNY   88  53  30 NW8       30.04F
FRONT RANGE AP MOSUNNY   88  50  27 NW3       30.03F
ERIE MUNI ARPT SUNNY     86  53  31 CALM      29.99S
BOULDER MUN AP MOSUNNY   82  55  39 NE5       30.00S
CENTENNIAL     MOSUNNY   89  46  22 N9        30.05S
BROOMFIELD     MOSUNNY   86  54  32 NE6       30.03F
FORT COLLINS   SUNNY     84  61  45 S8        29.97F
LONGMONT       MOSUNNY   87  58  37 E5        30.00S
$$

COZ041-046-047-076>085-087-088-041900-
...PIKES PEAK/PALMER DIVIDE AND SOUTHERN FOOTHILLS...

CITY           SKY/WX    TMP DP  RH WIND       PRES   REMARKS
COLO. SPRINGS  MOSUNNY   79  59  50 SE9       30.10F
A. F. ACADEMY  MOSUNNY   80  58  45 S10       30.10F
ELLICOTT       SUNNY    N/A N/A N/A SW6       30.09S
FALCON         SUNNY     82  53  36 S6        30.16S
FORT CARSON    SUNNY     79  61  53 VRB6      30.08S
LIMON          SUNNY     82  56  40 S13       30.04F
MONUMENT HILL  NOT AVBL
TRINIDAD       SUNNY     86  45  23 S7        30.08F
$$

COZ042>045-048>051-090-091-041900-
...NORTHEAST COLORADO...

CITY           SKY/WX    TMP DP  RH WIND       PRES   REMARKS
GREELEY ARPT   SUNNY     82  63  51 SE6       29.97F
AKRON          SUNNY     88  54  31 S10G23    29.97F
BURLINGTON     SUNNY     87  58  37 S16       29.98F
WRAY           SUNNY     90  56  32 S15       29.94F
STERLING       SUNNY     88  61  40 SE5         N/A
HOLYOKE        SUNNY     86  63  45 S15       29.95S
FORT MORGAN    SUNNY     86  54  32 CALM      29.97S
$$

COZ086-089-092>099-041900-
...SOUTHEAST COLORADO...

CITY           SKY/WX    TMP DP  RH WIND       PRES   REMARKS
PUEBLO         SUNNY     89  56  32 MISG      29.98F
LA JUNTA       SUNNY     92  54  27 S12G18    29.96F
LAMAR          SUNNY     88  58  36 S8G17     29.94F
SPRINGFIELD      N/A     90  55  30 S13G20    29.99F
$$



USA.gov is the U.S. government's official web portal to all federal, state and local government web resources and services.